Location: Newark
(48.6461°N, 4.3644°W)
Time: 13:47:29
(UTC+00:00)

A-11 Canister half - Pass Details

Date: 31 January 2020
Orbit: 1517 x 1683 km, 47.2° (Epoch: 28 February)

Event Time Altitude Azimuth Distance (km) Brightness Sun altitude
Exits shadow 04:52:06 37° 209° (SSW) 2,192 9.5 -29.3°
Drops below altitude 10° 04:59:36 10° 156° (SSE) 3,694 11.2 -28.0°
Sets 05:02:56 0° 148° (SSE) 4,690 11.9 -27.5°
